• In United Kingdom
  • List of Countries
  • For 7 days
  • Water Temperature
  • Satellite Maps
  • Weather Map
  • Weather Widgets
  • user-avatar
    Login

    Hourly Weather Neuquén

    Today, 17 July, Tuesday

    Time Temperature Precipitation Wind Pressure Humidity
    00:00 +6°C° 0 mm 5 mps 738 mmHg 74%
    01:00 +6°C° 0 mm 5 mps 738 mmHg 77%
    02:00 +6°C° 0 mm 5 mps 738 mmHg 78%
    03:00 +5°C° 0 mm 5 mps 738 mmHg 80%
    04:00 +5°C° 0 mm 5 mps 738 mmHg 82%
    05:00 +5°C° 0 mm 5 mps 738 mmHg 83%
    06:00 +5°C° 0 mm 4 mps 738 mmHg 84%
    07:00 +5°C° 0 mm 4 mps 738 mmHg 84%
    08:00 +5°C° 0 mm 4 mps 739 mmHg 83%
    09:00 +5°C° 0 mm 4 mps 739 mmHg 81%
    10:00 +6°C° 0 mm 4 mps 739 mmHg 79%
    11:00 +6°C° 0 mm 4 mps 739 mmHg 78%
    12:00 +6°C° 0 mm 4 mps 739 mmHg 78%
    13:00 +6°C° 0 mm 4 mps 739 mmHg 77%
    14:00 +6°C° 0 mm 4 mps 739 mmHg 77%
    15:00 +6°C° 0 mm 4 mps 739 mmHg 77%
    16:00 +6°C° 0 mm 4 mps 739 mmHg 77%
    17:00 +6°C° 0 mm 4 mps 739 mmHg 77%
    18:00 +6°C° 0 mm 4 mps 739 mmHg 78%
    19:00 +5°C° 0 mm 4 mps 739 mmHg 78%
    20:00 +5°C° 0 mm 4 mps 740 mmHg 77%
    21:00 +5°C° 0 mm 4 mps 740 mmHg 77%
    22:00 +5°C° 0 mm 4 mps 740 mmHg 77%
    23:00 +5°C° 0 mm 4 mps 740 mmHg 77%

    Tomorrow, 18 July, Wednesday

    Time Temperature Precipitation Wind Pressure Humidity
    00:00 +5°C° 0 mm 4 mps 740 mmHg 78%
    01:00 +5°C° 0 mm 4 mps 740 mmHg 79%
    02:00 +3°C° 0.2 mm 5 mps 740 mmHg 79%
    03:00 +3°C° 0.2 mm 5 mps 739 mmHg 80%
    04:00 +3°C° 0.2 mm 5 mps 739 mmHg 80%
    05:00 +3°C° 0.4 mm 6 mps 739 mmHg 80%
    06:00 +3°C° 0.4 mm 6 mps 740 mmHg 80%
    07:00 +3°C° 0.4 mm 6 mps 740 mmHg 80%
    08:00 +3°C° 0.6 mm 7 mps 740 mmHg 79%
    09:00 +3°C° 0.6 mm 7 mps 740 mmHg 78%
    10:00 +3°C° 0.6 mm 7 mps 740 mmHg 77%
    11:00 +3°C° 0.9 mm 7 mps 740 mmHg 79%
    12:00 +3°C° 0.9 mm 7 mps 740 mmHg 81%
    13:00 +3°C° 0.9 mm 6 mps 739 mmHg 82%
    14:00 +4°C° 0.7 mm 7 mps 739 mmHg 83%
    15:00 +4°C° 0.7 mm 7 mps 739 mmHg 84%
    16:00 +4°C° 0.7 mm 8 mps 739 mmHg 85%
    17:00 +4°C° 0.5 mm 8 mps 739 mmHg 86%
    18:00 +4°C° 0.5 mm 8 mps 739 mmHg 86%
    19:00 +4°C° 0.5 mm 8 mps 740 mmHg 87%
    20:00 +4°C° 1 mm 8 mps 740 mmHg 87%
    21:00 +4°C° 1 mm 8 mps 740 mmHg 88%
    22:00 +4°C° 1 mm 7 mps 740 mmHg 88%
    23:00 +4°C° 0.7 mm 7 mps 740 mmHg 88%

    Day after tomorrow, 19 July, Thursday

    Time Temperature Precipitation Wind Pressure Humidity
    00:00 +4°C° 0.7 mm 7 mps 740 mmHg 88%
    01:00 +4°C° 0.7 mm 7 mps 740 mmHg 88%
    02:00 +4°C° 0.4 mm 8 mps 740 mmHg 88%
    03:00 +4°C° 0.4 mm 8 mps 739 mmHg 87%
    04:00 +4°C° 0.4 mm 8 mps 739 mmHg 86%
    05:00 +4°C° 0.2 mm 8 mps 740 mmHg 86%
    06:00 +4°C° 0.2 mm 8 mps 740 mmHg 86%
    07:00 +4°C° 0.2 mm 8 mps 741 mmHg 86%
    08:00 +3°C° 0.2 mm 9 mps 741 mmHg 84%
    09:00 +3°C° 0.2 mm 9 mps 741 mmHg 83%
    10:00 +3°C° 0.2 mm 10 mps 741 mmHg 81%
    11:00 +5°C° 0.1 mm 10 mps 741 mmHg 78%
    12:00 +5°C° 0.1 mm 10 mps 741 mmHg 76%
    13:00 +5°C° 0.1 mm 9 mps 740 mmHg 73%
    14:00 +5°C° 0 mm 9 mps 741 mmHg 72%
    15:00 +5°C° 0 mm 8 mps 741 mmHg 70%
    16:00 +6°C° 0 mm 7 mps 741 mmHg 69%
    17:00 +5°C° 0 mm 7 mps 741 mmHg 70%
    18:00 +5°C° 0 mm 6 mps 741 mmHg 71%
    19:00 +4°C° 0 mm 6 mps 741 mmHg 71%
    20:00 +4°C° 0 mm 6 mps 741 mmHg 70%
    21:00 +4°C° 0 mm 6 mps 741 mmHg 69%
    22:00 +4°C° 0 mm 7 mps 741 mmHg 68%
    23:00 +4°C° 0 mm 7 mps 741 mmHg 68%

    20 July, Friday

    Time Temperature Precipitation Wind Pressure Humidity
    00:00 +3°C° 0 mm 7 mps 740 mmHg 68%
    01:00 +3°C° 0 mm 7 mps 740 mmHg 69%
    02:00 +3°C° 0 mm 7 mps 740 mmHg 69%
    03:00 +3°C° 0 mm 7 mps 740 mmHg 69%
    04:00 +2°C° 0 mm 7 mps 739 mmHg 69%
    05:00 +3°C° 0 mm 7 mps 740 mmHg 69%
    06:00 +3°C° 0 mm 7 mps 740 mmHg 69%
    07:00 +3°C° 0 mm 7 mps 740 mmHg 69%
    08:00 +4°C° 0 mm 7 mps 740 mmHg 66%
    09:00 +5°C° 0 mm 7 mps 740 mmHg 63%
    10:00 +7°C° 0 mm 6 mps 740 mmHg 59%
    11:00 +8°C° 0 mm 6 mps 740 mmHg 57%
    12:00 +9°C° 0 mm 6 mps 739 mmHg 54%
    13:00 +10°C° 0 mm 6 mps 739 mmHg 52%
    14:00 +9°C° 0 mm 5 mps 738 mmHg 52%
    15:00 +9°C° 0 mm 5 mps 738 mmHg 52%
    16:00 +9°C° 0 mm 5 mps 738 mmHg 52%
    17:00 +8°C° 0 mm 4 mps 738 mmHg 55%
    18:00 +7°C° 0 mm 4 mps 738 mmHg 58%
    19:00 +7°C° 0 mm 3 mps 738 mmHg 61%
    20:00 +7°C° 0 mm 3 mps 737 mmHg 61%
    21:00 +5°C° 0 mm 3 mps 737 mmHg 61%
    22:00 +5°C° 0 mm 3 mps 737 mmHg 61%
    23:00 +5°C° 0 mm 4 mps 736 mmHg 62%

    21 July, Saturday

    Time Temperature Precipitation Wind Pressure Humidity
    00:00 +5°C° 0 mm 4 mps 736 mmHg 62%
    01:00 +5°C° 0 mm 5 mps 736 mmHg 62%
    02:00 +4°C° 0 mm 4 mps 735 mmHg 63%
    03:00 +4°C° 0 mm 4 mps 735 mmHg 64%
    04:00 +4°C° 0 mm 4 mps 734 mmHg 65%
    05:00 +4°C° 0 mm 4 mps 734 mmHg 66%
    06:00 +3°C° 0 mm 3 mps 734 mmHg 66%
    07:00 +3°C° 0 mm 3 mps 734 mmHg 66%
    08:00 +5°C° 0 mm 3 mps 734 mmHg 60%
    09:00 +7°C° 0 mm 3 mps 733 mmHg 54%
    10:00 +9°C° 0 mm 3 mps 733 mmHg 48%
    11:00 +9°C° 0 mm 3 mps 732 mmHg 44%
    12:00 +10°C° 0 mm 3 mps 732 mmHg 40%
    13:00 +11°C° 0 mm 3 mps 731 mmHg 36%
    14:00 +12°C° 0 mm 2 mps 730 mmHg 38%
    15:00 +12°C° 0 mm 2 mps 730 mmHg 39%
    16:00 +11°C° 0 mm 1 mps 730 mmHg 41%
    17:00 +11°C° 0 mm 1 mps 729 mmHg 42%
    18:00 +10°C° 0 mm 1 mps 729 mmHg 43%
    19:00 +9°C° 0 mm 2 mps 729 mmHg 44%
    20:00 +8°C° 0 mm 2 mps 729 mmHg 45%
    21:00 +8°C° 0 mm 2 mps 729 mmHg 46%
    22:00 +7°C° 0 mm 2 mps 729 mmHg 47%
    23:00 +7°C° 0 mm 3 mps 730 mmHg 52%

    22 July, Sunday

    Time Temperature Precipitation Wind Pressure Humidity
    00:00 +6°C° 0 mm 4 mps 730 mmHg 56%
    01:00 +6°C° 0 mm 5 mps 731 mmHg 61%
    02:00 +6°C° 0 mm 4 mps 731 mmHg 63%
    03:00 +5°C° 0 mm 4 mps 731 mmHg 66%
    04:00 +5°C° 0 mm 3 mps 732 mmHg 68%
    05:00 +5°C° 0 mm 3 mps 732 mmHg 68%
    06:00 +4°C° 0 mm 4 mps 733 mmHg 69%
    07:00 +4°C° 0 mm 4 mps 734 mmHg 69%
    08:00 +4°C° 0 mm 6 mps 734 mmHg 62%
    09:00 +6°C° 0 mm 8 mps 735 mmHg 54%
    10:00 +7°C° 0 mm 10 mps 736 mmHg 46%
    11:00 +7°C° 0 mm 10 mps 736 mmHg 43%
    12:00 +8°C° 0 mm 11 mps 736 mmHg 40%
    13:00 +8°C° 0 mm 12 mps 736 mmHg 37%
    14:00 +8°C° 0 mm 11 mps 737 mmHg 38%
    15:00 +7°C° 0 mm 10 mps 737 mmHg 40%
    16:00 +7°C° 0 mm 10 mps 738 mmHg 41%
    17:00 +6°C° 0 mm 9 mps 738 mmHg 47%
    18:00 +5°C° 0 mm 9 mps 739 mmHg 52%
    19:00 +4°C° 0 mm 8 mps 740 mmHg 57%
    20:00 +4°C° 0.1 mm 8 mps 741 mmHg 61%
    21:00 +4°C° 0.1 mm 7 mps 741 mmHg 65%
    22:00 +4°C° 0.1 mm 6 mps 742 mmHg 69%
    23:00 +3°C° 0 mm 6 mps 742 mmHg 69%
    Show more